Regional Weather Roundup
Issued by NWS

Home | Current Version | Previous Version | Graphics & Text | Print | Product List | Glossary On
Versions: 1 2 3 4 5 6 7 8 9 10 11 12 13 14 15 16 17 18 19 20 21 22 23 24 25 26 27 28 29 30 31 32 33 34 35 36 37 38 39 40 41 42 43 44 45 46 47 48 49 50
000
ASUS43 KIND 241900
RWRIN

WEATHER ROUNDUP FOR INDIANA
NATIONAL WEATHER SERVICE INDIANAPOLIS IN
300 PM EDT MON JUL 24 2017

NOTE: "FAIR" INDICATES FEW OR NO CLOUDS BELOW 12,000 FEET WITH NO
SIGNIFICANT WEATHER AND/OR OBSTRUCTIONS TO VISIBILITY.

* - STATION DOES NOT REPORT WEATHER SUCH AS PRECIPITATION OR FOG.

+ - STATION NOT QUALITY CONTROLLED BY THE NATIONAL WEATHER SERVICE.
    USE DATA WITH CAUTION...ESPECIALLY DEWPOINT AND RELATIVE
    HUMIDITY OBSERVATIONS.

INZ001>003-010>013-019-020-242000-
NORTHWEST INDIANA

CITY           SKY/WX    TMP DP  RH WIND       PRES   REMARKS
GARY /AIRPORT/ PTSUNNY   73  57  56 N16       30.05S
MONTICELLO +   PTSUNNY   76  63  64 N12G17    30.00S

$$

LMZ046-743>745-242000-
SOUTHERN LAKE MICHIGAN

STATION/POSITION TIME  TEMP    WIND        PRES    WAVE
                       AIR SEA DIR/SP/G            HT
                 (UTC) (F)     (DEG/KT/KT) (MB)    (FT)
BURNS HARBOR     1840   69      10/ 14/ 16 1017.6R
MICHIGAN CITY    1830   68     360/ 14/ 15   N/A
5NW MICH CITY    1850   68 74   20/ 12/ 16   N/A     5

$$

INZ004-005-014>016-021>024-242000-
NORTH CENTRAL INDIANA

CITY           SKY/WX    TMP DP  RH WIND       PRES   REMARKS
ELKHART        PTSUNNY   72  57  60 N9        30.02R
GOSHEN         MOSUNNY   74  57  55 VRB6      30.02R
SOUTH BEND     MOSUNNY   75  60  59 NE10      30.03R

$$

INZ006>009-017-018-025>027-242000-
NORTHEAST INDIANA

CITY           SKY/WX    TMP DP  RH WIND       PRES   REMARKS
FORT WAYNE     CLOUDY    72  60  66 N9        30.02R
KENDALLVILLE + PTSUNNY   69  59  70 N6        30.03R

$$

INZ028-029-035-036-043>045-051>053-242000-
WEST CENTRAL INDIANA

CITY           SKY/WX    TMP DP  RH WIND       PRES   REMARKS
LAFAYETTE      MOSUNNY   78  65  63 N8        29.99S
TERRE HAUTE    SUNNY     83  67  58 N8        29.98S

$$

INZ030>032-037>040-046>048-054>057-064-065-242000-
CENTRAL INDIANA

CITY           SKY/WX    TMP DP  RH WIND       PRES   REMARKS
COLUMBUS       SUNNY     81  64  57 N6        29.97S
GREENWOOD *+   SUNNY    N/A N/A N/A N9        29.99R
INDIANAPOLIS   MOSUNNY   81  64  56 N10       29.98R
-EAGLE CREEK   MOSUNNY   80  64  58 NW9       29.98S
KOKOMO +       PTSUNNY   79  64  60 N8        30.01S
MT COMFORT *+  PTSUNNY   77  66  69 N7        29.99S
SHELBYVILLE    MOSUNNY   82  67  60 N8        29.98R

$$

INZ033-034-041-042-049-050-058-059-242000-
EAST CENTRAL INDIANA

CITY           SKY/WX    TMP DP  RH WIND       PRES   REMARKS
MUNCIE         CLOUDY    78  65  63 N9        30.00R
RICHMOND +     MOSUNNY   77  64  65 N7        29.99S

$$

INZ060-061-067>069-081>083-085>088-242000-
SOUTHWEST INDIANA

CITY           SKY/WX    TMP DP  RH WIND       PRES   REMARKS
EVANSVILLE     MOSUNNY   89  70  53 N9        29.94S
HUNTINGBURG *+ MOSUNNY   87  72  60 VRB5      29.95S

$$

INZ062-063-066-070>080-084-089>092-242000-
SOUTH CENTRAL AND SOUTHEAST INDIANA

CITY           SKY/WX    TMP DP  RH WIND       PRES   REMARKS
BLOOMINGTON    MOSUNNY   85  63  47 VRB7      29.98R
MADISON *+     MOSUNNY   86  63  45 NW8       29.98S
SEYMOUR +      SUNNY    N/A N/A N/A N3        29.96S

$$




USA.gov is the U.S. government's official web portal to all federal, state and local government web resources and services.